Mt. Pocono, PA

9:16 AM EDT on April 28, 2017 (GMT -0400)
Pocono Mountains Municipal

Weather History for KMPO - February, 2012

Change the Weather History Date:

Wednesday, February 8, 2012

  Actual Average Record
Temperature  
Mean Temperature 28 °F 25 °F  
Max Temperature 32 °F 33 °F 50 °F (2017)
Min Temperature 23 °F 17 °F -15 °F (1963)
Degree Days  
Heating Degree Days 37 40  
Month to date heating degree days 254 326  
Since 1 July heating degree days 3578 4357  
Cooling Degree Days 0 0  
Month to date cooling degree days 0 0  
Year to date cooling degree days 0 0  
Moisture  
Dew Point 22 °F    
Average Humidity 71    
Maximum Humidity 92    
Minimum Humidity 49    
Precipitation  
Precipitation 0.02 in 0.07 in 1.04 in (1965)
Month to date precipitation 0.02 0.58  
Year to date precipitation 3.24 3.43  
Sea Level Pressure  
Sea Level Pressure 30.13 in    
Wind  
Wind Speed 3 mph (WNW)    
Max Wind Speed 14 mph    
Max Gust Speed 20 mph    
Visibility 7 miles    
Events Snow    
T = Trace of Precipitation, MM = Missing Value Source: NWS Daily Summary

Daily Weather History Graph

Daily Weather History Graph

Search for Another Location

Airport or City:

Trip Planner

Search our weather history database for the weather conditions in past years. The results will help you decide how hot, cold, wet, or windy it might be!

Date:

Astronomy

Feb. 08, 2012 Rise Set
Actual Time 7:05 AM EST 5:26 PM EST
Civil Twilight 6:36 AM EST 5:55 PM EST
Nautical Twilight 6:04 AM EST 6:27 PM EST
Astronomical Twilight 5:32 AM EST 6:59 PM EST
Moon 6:44 PM EST (2/8) 7:06 AM EST (2/8)
Length of Visible Light 11h 18m
Length of Day
10h 20m
Full, 99% of the Moon is Illuminated
Feb 8
Full
Feb 14
Last Quarter
Feb 21
New
Feb 29
First Quarter
Mar 8
Full

Hourly Weather History & Observations

Time (EST) Temp. Windchill Dew Point Humidity Pressure Visibility Wind Dir Wind Speed Gust Speed Precip Events Conditions
12:53 AM 26.1 °F 17.6 °F 19.0 °F 75% 30.23 in 10.0 mi NNW 8.1 mph - N/A   Clear
1:53 AM 25.0 °F 18.1 °F 18.0 °F 75% 30.23 in 10.0 mi NNW 5.8 mph - N/A   Partly Cloudy
2:53 AM 24.1 °F 18.2 °F 17.1 °F 75% 30.25 in 10.0 mi NNW 4.6 mph - N/A   Clear
3:53 AM 24.1 °F 16.0 °F 17.1 °F 75% 30.29 in 10.0 mi NNW 6.9 mph - N/A   Clear
4:53 AM 24.1 °F 19.7 °F 16.0 °F 71% 30.25 in 10.0 mi NNE 3.5 mph - N/A   Clear
5:53 AM 24.1 °F 18.2 °F 16.0 °F 71% 30.23 in 10.0 mi NE 4.6 mph - N/A   Overcast
6:53 AM 24.1 °F - 16.0 °F 71% 30.23 in 10.0 mi Calm Calm - N/A   Scattered Clouds
7:53 AM 24.1 °F - 16.0 °F 71% 30.27 in 10.0 mi Calm Calm - N/A   Mostly Cloudy
8:53 AM 25.0 °F 18.1 °F 17.1 °F 72% 30.31 in 10.0 mi SE 5.8 mph - N/A   Overcast
9:53 AM 27.0 °F 23.0 °F 14.0 °F 58% 30.30 in 10.0 mi ESE 3.5 mph - N/A   Partly Cloudy
11:53 AM 30.9 °F 26.2 °F 14.0 °F 50% 30.24 in 10.0 mi Variable 4.6 mph - N/A   Scattered Clouds
12:53 PM 30.9 °F 26.2 °F 14.0 °F 50% 30.20 in 10.0 mi South 4.6 mph - N/A   Overcast
1:53 PM 30.0 °F - 19.0 °F 64% 30.13 in 9.0 mi Calm Calm - 0.00 in Snow Light Snow
2:53 PM 28.9 °F - 21.9 °F 75% 30.19 in 4.0 mi Calm Calm - 0.00 in Snow Light Snow
3:53 PM 28.9 °F 25.2 °F 23.0 °F 78% 30.18 in 4.0 mi SSW 3.5 mph - 0.00 in   Haze
4:14 PM 28.4 °F 24.6 °F 23.0 °F 80% 30.09 in 2.0 mi SSW 3.5 mph - 0.00 in Snow Light Snow
4:28 PM 28.4 °F - 23.0 °F 80% 30.09 in 6.0 mi Calm Calm - 0.00 in Snow Light Snow
4:37 PM 28.4 °F - 23.0 °F 80% 30.08 in 1.8 mi Calm Calm - 0.00 in Snow Light Snow
4:53 PM 28.9 °F - 24.1 °F 82% 30.15 in 1.2 mi Calm Calm - 0.00 in Snow Light Snow
5:04 PM 28.4 °F - 24.8 °F 86% 30.07 in 1.8 mi Calm Calm - 0.00 in Snow Light Snow
5:25 PM 28.4 °F - 24.8 °F 86% 30.05 in 1.8 mi Calm Calm - 0.00 in Snow Light Snow
5:32 PM 28.4 °F - 24.8 °F 86% 30.05 in 2.5 mi Calm Calm - 0.00 in Snow Light Snow
5:53 PM 28.0 °F - 25.0 °F 88% 30.12 in 3.0 mi Calm Calm - 0.01 in Snow Light Snow
6:25 PM 28.4 °F - 24.8 °F 86% 30.03 in 4.0 mi Calm Calm - 0.00 in Snow Light Snow
6:53 PM 28.0 °F - 25.0 °F 88% 30.10 in 4.0 mi Calm Calm - 0.00 in Snow Light Snow
7:53 PM 27.0 °F - 25.0 °F 92% 30.09 in 10.0 mi Calm Calm - 0.00 in   Scattered Clouds
8:31 PM 26.6 °F - 24.8 °F 93% 30.01 in 6.0 mi Calm Calm - N/A   Overcast
8:40 PM 26.6 °F - 24.8 °F 93% 30.01 in 6.0 mi Calm Calm - N/A   Overcast
8:53 PM 27.0 °F - 24.1 °F 89% 30.09 in 7.0 mi Calm Calm - N/A   Overcast
9:24 PM 28.4 °F 24.6 °F 24.8 °F 86% 30.01 in 10.0 mi WNW 3.5 mph - N/A   Overcast
9:53 PM 27.0 °F 23.0 °F 25.0 °F 92% 30.09 in 9.0 mi West 3.5 mph - N/A   Overcast
10:43 PM 28.4 °F 24.6 °F 24.8 °F 86% 30.02 in 2.5 mi West 3.5 mph - 0.00 in Snow Light Snow
10:53 PM 28.0 °F 22.8 °F 25.0 °F 88% 30.09 in 2.5 mi West 4.6 mph - 0.00 in Snow Light Snow
11:08 PM 28.4 °F 23.3 °F 24.8 °F 86% 30.02 in 2.5 mi WNW 4.6 mph - 0.00 in Snow Light Snow
11:33 PM 26.6 °F 22.6 °F 24.8 °F 93% 30.01 in 7.0 mi WNW 3.5 mph - 0.01 in Snow Light Snow
11:43 PM 26.6 °F 19.1 °F 24.8 °F 93% 30.01 in 7.0 mi NW 6.9 mph - 0.01 in   Overcast
11:53 PM 27.0 °F 21.6 °F 24.1 °F 89% 30.08 in 10.0 mi NW 4.6 mph - 0.01 in   Overcast